User: anonymous   Login
Location: Unspecified
(0.0000°N, 0.0000°E)
Time: 10:26:06
(UTC+00:00)
Language:

ELEKTRO-L - Orbit

View from above orbital plane
View from above orbital plane
View from above satellite
View from above satellite

Ground track
Ground track

The orbit data is extracted from the following two-line orbital elements,

1 37344U 11001A   17321.33843106 -.00000099 +00000-0 +00000-0 0  9995
2 37344 002.7488 077.3146 0004101 264.8318 094.8510 01.00156059025065
Epoch (UTC): 17 November 2017 08:07:20
Eccentricity: 0.0004101
inclination: 2.7488°
perigee height: 35801 km
apogee height: 35836 km
right ascension of ascending node: 77.3146°
argument of perigee: 264.8318°
revolutions per day: 1.00156059
mean anomaly at epoch: 94.8510°
orbit number at epoch: 2506

The dashed part of the orbit path shows where the satellite is in the earth's shadow,  

DLR